Hourly Data Report for June 13, 2017

FISHER BRANCH (AUT)
MANITOBA

51°05'00.100" N
97°33'16.200" W
253.00 m
50309J6
71442
WSZ

Download Data

Hourly Data (June 2017)
Hourly Data Report for June 13, 2017
TIME
LST
Temp Definition
°C
Dew Point Definition
°C
Rel Hum Definition
%
Precip. Amount Definition
mm

Wind Dir Definition
10's deg

Wind Spd Definition
km/h
Visibility Definition
km
Stn Press Definition
kPa
Hmdx Definition


Wind Chill Definition


Weather Definition


00:00 8.4 3.7 72 0.0 5 7   98.63     LegendNANA
01:00 9.1 4.0 71 0.0 5 8   98.65     LegendNANA
02:00 6.3 3.7 83 0.0 11 4   98.75     LegendNANA
03:00 5.1 3.1 87 0.0 3 2   98.69     LegendNANA
04:00 4.6 3.3 91 0.0 5 5   98.62     LegendNANA
05:00 5.9 4.1 89 0.0 7 3   98.64     LegendNANA
06:00 10.9 6.5 75 0.0 5 7   98.63     LegendNANA
07:00 15.1 7.9 62 0.0 8 12   98.58     LegendNANA
08:00 17.3 8.5 56 0.0 8 14   98.53     LegendNANA
09:00 20.4 8.0 45 0.0 10 18   98.49     LegendNANA
10:00 19.9 7.7 45 0.0 10 21   98.42     LegendNANA
11:00 21.5 6.3 37 0.0 10 28   98.31     LegendNANA
12:00 22.2 6.0 35 0.0 8 33   98.24     LegendNANA
13:00 22.7 5.5 33 0.0 8 31   98.22     LegendNANA
14:00 21.8 6.0 36 0.0 8 29   98.23     LegendNANA
15:00 18.3 10.2 59 0.0 6 21   98.21     LegendNANA
16:00 18.7 9.9 57 0.0 5 23   98.10     LegendNANA
17:00 19.2 10.5 57 0.0 5 18   98.05     LegendNANA
18:00 20.0 9.6 51 0.0 5 22   98.01     LegendNANA
19:00 20.0 9.7 52 0.0 5 19   97.88     LegendNANA
20:00 19.9 8.1 47 0.0 6 23   97.80     LegendNANA
21:00 18.9 8.4 50 0.0 7 20   97.72     LegendNANA
22:00 18.3 9.2 55 0.0 7 20   97.59     LegendNANA
23:00 18.4 9.4 56 0.0 8 22   97.60     LegendNANA

Notes on Data Quality.

Legend

  • E = Estimated
  • M = Missing
  • NA = Not Available*
  • [empty] = Indicates an unobserved value
Date modified: